Hourly Data Report for October 01, 2017

All times are specified in Local Standard Time (LST). Add 1 hour to adjust for Daylight Saving Time where and when it is observed.

REVELSTOKE A
BRITISH COLUMBIA

50°58'00.000" N
118°11'00.000" W
444.70 m
1176745
71685
YRV

Related Data

No related data is available for this station

Download Data

Hourly Data (October 2017)
Hourly Data Report for October 1, 2017
Temp Definition
°C
Dew Point Temp Definition
°C
Rel Hum Definition
%
Wind Dir Definition
10's deg

Wind Spd Definition
km/h
Visibility Definition
km
Stn Press Definition
kPa
Hmdx Definition


Wind Chill Definition


Weather Definition


TIME
00:00 Legend Double Dagger 7.8 6.6 92 31 9 16.1 96.17     LegendNANA
01:00 Legend Double Dagger 7.6 6.4 92   0 16.1 96.18     LegendNANA
02:00 Legend Double Dagger 7.0 6.6 97   0 16.1 96.19     LegendNANA
03:00 Legend Double Dagger 7.3 6.7 96 33 5 16.1 96.20     LegendNANA
04:00 Legend Double Dagger 7.1 6.5 96 34 5 16.1 96.23     LegendNANA
05:00 Legend Double Dagger 6.2 5.8 97 LegendMM 4 16.1 96.24     LegendNANA
06:00 Legend Double Dagger 6.6 5.6 93 LegendMM 4 16.1 96.27     LegendNANA
07:00 Legend Double Dagger 7.2 5.8 91 30 5 16.1 96.30     LegendNANA
08:00 Legend Double Dagger 7.6 6.0 90   0 16.1 96.32     LegendNANA
09:00 Legend Double Dagger 11.4 5.1 65 35 15 16.1 96.28     LegendNANA
10:00 Legend Double Dagger 12.9 4.4 56 34 17 16.1 96.24     LegendNANA
11:00 Legend Double Dagger 12.6 3.2 53 32 21 16.1 96.24     LegendNANA
12:00 Legend Double Dagger 13.4 4.7 55 33 21 16.1 96.26     LegendNANA
13:00 Legend Double Dagger 13.3 5.4 59 32 15 16.1 96.28     LegendNANA
14:00 Legend Double Dagger 15.3 3.9 46 33 22 16.1 96.26     LegendNANA
15:00 Legend Double Dagger 15.0 4.4 49 32 18 16.1 96.27     LegendNANA
16:00 Legend Double Dagger 11.2 6.1 71 1 15 16.1 96.35     Rain
17:00 Legend Double Dagger 11.2 4.3 62 4 17 16.1 96.36     LegendNANA
18:00 Legend Double Dagger 10.5 4.8 68 36 21 16.1 96.42     LegendNANA
19:00 Legend Double Dagger 10.5 5.0 69 1 21 16.1 96.50     LegendNANA
20:00 Legend Double Dagger 9.4 5.0 74 34 13 16.1 96.53     LegendNANA
21:00 Legend Double Dagger 8.5 4.8 77 34 13 16.1 96.56     LegendNANA
22:00 Legend Double Dagger 8.1 4.6 78 36 15 16.1 96.57     LegendNANA
23:00 Legend Double Dagger 7.7 4.6 81 34 13 16.1 96.61     LegendNANA

Notes on Data Quality.

Legend

  • E = Estimated
  • M = Missing
  • NA = Not Available
  • ‡ = Partner data that is not subject to review by the National Climate Archives
Date modified: